SIRIUS FM-6

Last updated on Mon Jan 25 2021 10:36:06 GMT+0000 (Coordinated Universal Time)

1 39360U 13058A 21024.68716295 -.00000003 00000-0 00000-0 0 9995 2 39360 0.0101 35.6028 0001034 112.9772 106.8389 1.00270968 26316

Satellite not in orbit

SIRIUS FM-6